Wind_Speed
7 7 9 9 7 8 10 8 8 9 8 6 6 6 4 4 5 5 4 5 5 4 1 2 8 10 8 7 4 3 4 9 10 8 8 9 10 8 8 8 6 4 2 2 1 1 2 4 7 8 8 8 8 7 7 6 6 6 5 5 5 5 5 4 4 3 2 1 1 2 3 4 5 6 7 8 9 9 10 11 12 12 13 13 13
9 9 10 9 7 9 9 8 7 8 7 6 7 7 6 6 6 5 6 6 5 3 4 4 6 8 8 7 7 6 6 9 11 10 9 9 10 8 8 8 6 5 3 2 1 0 1 2 5 6 7 8 8 8 8 8 7 7 6 5 5 5 5 5 4 4 3 2 1 1 1 2 3 4 5 7 7 8 8 9 10 11 12 11 11
10 11 10 8 8 9 10 9 8 8 7 7 7 7 7 7 6 6 6 7 7 5 8 8 7 6 7 7 8 8 8 8 11 11 9 9 9 7 7 7 6 6 4 2 2 1 1 1 3 4 5 7 7 8 8 9 9 8 8 7 6 5 5 5 4 4 3 3 2 1 0 1 2 3 4 5 6 6 7 8 8 9 10 10 11
10 10 9 7 8 9 9 8 7 8 8 8 8 7 8 8 6 7 7 7 7 8 9 10 11 9 8 8 8 8 8 8 10 11 10 9 8 7 6 6 6 7 5 4 3 2 2 2 3 3 4 5 6 7 7 8 9 9 8 8 8 7 6 5 4 4 3 3 3 3 2 1 1 1 2 3 4 5 6 6 7 7 8 9 10
10 10 9 8 8 9 8 8 7 7 9 10 10 9 9 10 9 9 8 8 8 10 11 11 13 12 10 10 8 9 9 10 11 12 11 10 8 7 6 5 5 6 6 5 5 3 3 3 3 3 3 4 4 5 6 6 7 8 8 8 8 8 7 6 5 5 4 4 4 5 4 3 2 2 1 1 2 3 4 5 5 6 7 7 9
12 11 10 10 10 10 10 8 8 7 9 10 10 11 12 11 12 10 7 7 8 9 12 13 13 13 13 11 9 9 11 12 12 12 12 11 10 7 6 6 5 6 6 6 6 5 4 4 3 3 4 4 4 3 4 5 6 6 7 7 7 7 7 7 6 6 6 6 6 6 6 5 4 3 2 2 1 1 2 3 3 4 5 6 7
12 12 11 11 12 12 10 9 8 8 8 9 11 13 14 14 12 10 8 8 10 11 12 12 12 15 14 12 11 11 11 12 13 13 12 11 11 9 8 7 6 7 7 7 7 7 6 5 4 4 4 4 4 4 4 4 5 6 6 7 7 7 7 7 7 6 7 8 8 7 7 7 6 5 4 3 2 1 0 1 1 2 3 4 5
10 10 10 11 12 12 11 10 9 9 9 9 11 14 15 15 12 10 9 9 10 10 11 13 15 18 16 13 14 14 13 13 13 13 12 9 11 12 11 9 8 8 8 9 9 9 8 6 5 4 4 4 4 4 4 4 5 5 5 6 7 7 7 8 8 7 6 7 9 9 9 9 8 8 6 5 4 3 2 1 0 1 2 3 4
8 9 10 11 12 12 11 11 10 10 10 9 10 13 15 15 13 11 9 8 8 8 11 17 19 20 16 13 15 16 16 16 14 13 12 9 7 11 12 11 10 10 10 11 11 10 9 7 6 6 5 5 4 4 4 5 6 6 6 6 6 7 7 7 7 7 6 6 8 9 9 9 10 10 9 7 6 4 4 3 2 1 0 1 3
8 8 10 11 11 12 11 11 10 10 10 9 9 12 14 15 14 12 9 8 8 6 11 18 19 17 14 13 15 16 17 18 16 14 13 11 8 5 7 9 11 11 11 11 11 10 9 8 8 8 8 7 6 5 5 4 5 6 7 6 6 6 6 6 6 6 6 5 6 7 8 9 10 10 10 9 7 6 5 4 3 2 1 0 1
6 7 7 9 10 10 11 10 10 10 9 10 10 11 13 15 15 13 10 8 8 7 10 16 16 15 14 13 13 15 18 18 18 18 15 13 10 7 3 4 8 11 11 11 11 9 9 9 9 9 9 9 9 8 7 5 5 5 6 6 6 6 6 6 6 6 6 6 6 6 7 9 10 10 10 10 9 7 5 5 4 3 2 1 0
6 6 5 5 5 6 8 8 9 10 10 10 11 11 12 14 15 14 12 10 10 9 10 12 12 12 12 12 12 14 16 16 16 19 19 17 14 12 8 4 5 8 11 12 11 10 10 10 11 11 10 11 11 10 9 7 5 4 4 5 6 6 7 7 6 6 6 6 6 6 6 8 9 8 9 9 9 8 7 5 4 4 3 3 2
6 5 5 4 4 4 5 6 7 9 10 10 10 11 12 14 16 15 14 13 12 11 11 11 11 11 10 10 11 12 12 12 12 14 18 19 17 16 15 10 7 6 8 10 9 10 10 11 13 13 12 12 11 10 10 9 7 4 4 5 6 6 7 8 7 7 7 6 6 5 4 5 7 7 7 8 8 8 7 7 5 5 4 4 3
6 6 6 5 5 4 3 3 4 6 8 8 9 11 12 13 16 17 16 14 13 12 12 11 11 11 11 10 9 9 9 9 11 13 15 17 17 18 18 16 13 9 8 9 9 10 12 14 14 14 14 12 10 9 10 9 7 6 6 6 7 8 9 9 8 8 8 7 6 5 3 3 4 5 6 7 7 7 7 7 7 6 5 5 4
10 10 8 6 5 4 3 2 3 4 6 6 7 8 9 10 12 14 15 13 14 15 14 12 11 11 11 10 8 8 8 8 11 13 16 16 16 16 17 17 16 14 12 11 12 13 14 15 13 12 12 13 12 10 10 9 8 8 8 8 8 9 9 9 9 10 9 8 7 6 4 2 3 3 4 6 7 7 7 7 7 7 6 6 5
13 12 10 8 6 4 3 3 2 3 4 4 4 3 3 5 7 10 12 12 13 14 14 13 13 12 10 9 8 7 6 7 8 9 13 14 13 13 14 15 15 16 16 14 14 15 14 15 16 15 13 13 13 13 12 13 12 11 10 9 8 9 10 10 11 11 10 9 7 6 4 4 4 4 4 5 6 7 7 7 7 7 7 7 6
14 13 13 11 9 6 5 3 4 5 7 8 7 6 4 3 4 6 8 10 10 10 12 13 13 12 9 7 7 6 6 6 5 6 8 9 9 9 11 13 13 15 16 15 16 17 16 16 17 18 17 16 16 16 15 14 13 13 11 9 8 9 10 11 12 11 11 10 8 6 6 6 5 5 5 5 5 6 7 8 7 7 7 7 7
13 14 15 13 10 9 9 8 6 7 8 8 9 9 8 6 6 3 3 6 7 7 8 9 10 10 10 9 7 6 6 5 4 5 6 7 7 6 8 9 10 10 11 11 12 14 16 16 16 18 18 17 17 18 18 16 13 13 13 11 9 10 10 11 12 12 11 12 10 9 9 9 8 8 8 7 7 6 6 7 8 8 7 7 7
12 15 16 13 12 11 11 10 8 7 6 6 7 7 6 6 7 5 4 4 5 4 5 6 7 7 8 11 9 6 5 3 3 4 4 5 6 5 5 5 5 6 8 8 8 8 9 10 12 14 17 18 17 19 19 17 15 14 14 12 11 12 12 12 13 14 13 12 12 11 12 12 11 11 10 10 9 8 7 8 9 10 10 9 8
11 13 14 15 14 13 12 11 10 8 7 6 4 3 3 3 3 3 4 4 6 6 5 5 5 5 5 7 7 5 4 3 3 3 4 4 3 3 3 4 4 5 6 8 9 9 9 9 9 9 11 13 14 15 16 16 16 16 15 14 13 13 13 13 14 15 15 14 13 13 13 14 13 12 12 12 11 11 10 10 10 11 12 12 11
11 10 11 14 15 13 12 11 9 7 6 7 6 4 4 3 3 1 1 3 7 8 8 8 7 6 6 6 6 6 5 4 3 3 4 2 2 3 2 2 3 3 4 5 6 8 12 14 14 10 7 7 9 11 11 12 13 14 14 15 15 14 14 14 14 15 15 16 15 15 15 15 15 14 14 13 13 13 12 12 12 11 12 13 13
11 11 10 11 13 13 11 8 7 7 7 7 6 6 5 5 4 3 3 5 6 7 8 9 8 8 8 8 8 8 7 5 5 5 4 4 4 4 1 2 3 4 2 2 5 6 8 12 15 15 11 9 8 8 8 8 9 10 12 14 14 14 15 16 16 16 16 17 18 17 17 16 16 16 16 15 15 15 14 13 13 13 13 13 13
12 11 11 11 11 11 9 6 7 11 12 11 10 9 8 7 5 5 5 6 6 5 5 6 7 8 8 8 8 8 7 6 5 6 5 4 4 4 3 2 1 4 4 3 5 7 8 9 10 12 11 12 13 12 10 9 9 10 11 14 15 15 16 16 17 17 17 19 20 20 18 18 18 19 19 18 17 17 16 15 15 15 15 15 14
11 11 11 11 11 11 10 9 10 11 11 11 11 11 10 9 9 9 8 7 6 5 3 4 6 8 8 7 7 7 7 6 6 6 7 6 6 6 6 5 4 2 3 4 4 7 10 11 9 9 7 8 9 10 9 7 8 9 11 14 15 16 17 16 16 16 17 17 19 19 16 17 19 21 21 21 20 19 18 17 17 17 17 16 15
10 10 10 10 10 11 11 10 10 10 9 9 9 10 10 9 8 8 9 8 7 6 5 5 5 6 6 6 6 6 6 7 7 7 8 9 9 8 9 9 9 7 3 1 2 6 11 11 8 9 9 7 5 5 7 7 7 9 10 12 12 13 14 14 14 15 15 14 15 16 16 16 19 21 22 23 23 22 21 20 19 18 18 17 16
10 10 9 9 9 9 9 9 9 8 8 7 7 9 9 8 8 7 7 7 7 6 6 6 5 4 3 2 3 4 4 3 3 3 3 5 6 5 6 6 7 7 5 5 4 7 16 18 12 5 1 6 6 7 7 6 6 6 6 7 8 10 11 11 13 15 14 14 15 16 17 18 19 19 21 22 23 24 24 23 22 21 21 20 19
10 10 9 8 8 8 8 8 7 7 6 5 5 7 7 7 7 7 6 7 6 6 6 6 5 4 4 3 3 4 4 4 3 2 2 1 1 2 2 2 3 4 6 7 6 6 11 15 16 17 13 7 4 0 2 0 2 3 3 5 6 8 9 9 11 12 13 14 15 16 17 19 19 19 20 20 21 22 24 25 25 25 25 23 22
9 9 9 9 8 7 7 6 6 6 5 4 3 4 5 5 5 6 6 6 6 6 6 6 5 4 4 5 5 5 5 5 5 4 4 4 4 3 4 4 2 1 2 5 6 4 6 9 11 14 13 10 9 7 6 4 2 1 1 4 6 8 8 9 10 11 13 15 16 16 17 18 19 19 20 20 21 21 22 23 24 25 26 26 25
7 6 6 7 7 7 6 6 5 5 4 4 3 3 3 3 3 5 5 6 6 6 6 5 5 4 4 5 5 5 5 5 4 4 4 4 4 3 3 3 3 4 3 1 2 2 1 3 3 5 7 6 6 5 5 4 4 4 4 6 8 10 11 13 14 16 17 18 19 20 20 19 19 19 20 21 22 23 23 23 24 24 25 24 24
4 3 3 3 4 4 4 4 4 4 3 3 2 2 3 3 3 3 4 4 5 5 5 5 5 4 4 4 4 5 5 4 3 4 4 4 5 5 4 4 3 3 4 4 3 4 4 4 4 4 3 2 2 2 3 4 6 8 9 11 12 15 17 19 21 22 23 24 24 25 24 23 21 20 20 21 22 23 24 25 26 26 26 26 25
3 2 1 1 2 2 3 3 3 3 3 3 2 2 2 2 2 2 2 3 3 3 3 4 3 3 4 3 3 4 5 4 4 4 4 4 5 7 6 6 5 4 4 5 4 4 5 6 6 7 9 9 8 8 10 11 12 14 15 17 18 20 23 24 24 24 24 23 23 23 23 23 22 22 22 23 23 24 24 24 25 26 27 27 27
6 5 5 5 4 4 5 5 5 5 5 5 4 4 4 3 2 2 1 0 1 1 2 2 2 1 2 2 2 3 4 4 5 5 4 3 4 4 4 4 5 5 5 6 7 7 7 8 8 8 9 11 11 12 14 15 16 17 19 20 20 20 20 20 20 19 17 15 14 14 14 15 16 18 19 20 22 23 25 26 25 26 26 26 27
7 6 7 8 8 8 7 7 7 6 7 8 7 7 7 6 6 5 4 3 3 2 1 1 0 0 1 0 1 1 1 3 4 5 5 4 3 2 3 3 3 4 6 7 10 11 9 9 10 9 9 9 10 10 12 14 14 14 15 15 14 14 13 13 14 14 13 12 11 11 11 11 13 14 16 17 17 18 20 22 23 25 26 27 28
8 7 8 10 10 11 11 10 9 8 7 8 8 9 10 10 9 9 7 6 6 6 4 4 3 3 4 4 3 2 2 2 3 3 3 2 2 2 3 3 2 4 6 8 10 12 12 11 11 12 12 12 12 11 11 12 12 12 12 12 11 11 11 11 11 10 10 10 11 12 14 15 16 16 17 18 19 18 18 19 20 21 23 24 26
9 8 8 8 10 11 13 13 12 12 11 10 10 10 11 12 11 12 12 10 9 10 8 7 7 6 5 5 6 6 5 4 4 4 3 2 1 1 2 3 4 5 7 8 10 12 14 14 14 15 15 15 15 14 13 13 12 11 12 11 11 10 11 12 12 12 12 12 13 15 17 19 19 19 20 20 20 20 20 20 21 22 23 23 24
14 12 10 9 9 11 13 14 13 14 13 12 12 12 12 13 13 14 14 13 12 12 12 10 10 10 8 7 7 8 8 7 7 7 6 5 4 4 4 4 5 6 7 8 10 11 14 15 15 15 16 16 16 15 14 13 12 11 11 11 11 12 12 13 14 15 16 17 17 18 20 21 21 22 22 21 21 21 21 22 23 25 26 25 24
17 15 13 12 12 14 15 15 14 14 15 15 15 15 15 15 15 15 15 14 13 14 14 12 12 13 11 9 9 10 10 10 10 10 9 8 7 7 7 7 7 7 7 7 9 10 12 14 15 15 15 15 16 15 14 13 13 13 12 12 13 14 14 14 14 14 15 16 16 17 18 20 21 22 22 22 22 21 22 23 24 25 26 25 23
22 20 16 14 15 17 18 17 16 15 16 17 18 19 17 16 17 18 18 16 15 15 16 14 14 14 13 11 11 11 11 11 11 12 11 10 9 9 9 9 9 9 9 9 10 10 12 13 14 15 16 16 16 16 14 13 14 15 15 14 14 14 15 16 16 15 15 15 15 16 16 17 18 20 21 20 21 21 21 22 24 24 24 22 20
25 23 19 16 16 18 19 19 21 21 20 20 22 23 21 19 18 19 20 19 17 17 17 16 16 15 14 13 13 12 12 12 12 12 12 12 11 11 12 12 11 11 12 12 12 12 13 14 15 16 17 17 17 17 15 14 14 14 15 18 19 18 17 18 19 19 19 20 21 21 21 21 22 23 24 23 23 24 23 22 22 22 22 21 20
22 19 17 17 18 19 19 19 23 25 25 24 24 25 25 22 20 20 21 22 21 21 20 18 17 17 15 15 15 14 13 12 12 13 13 13 13 13 13 14 13 13 13 13 13 14 15 16 17 17 18 18 18 18 17 17 17 17 17 20 23 23 23 23 23 23 24 25 25 25 24 23 23 23 23 23 22 21 21 21 21 21 20 21 21
17 15 15 16 17 19 19 19 22 25 26 26 26 27 27 25 23 22 23 25 25 24 23 21 20 19 17 16 16 15 14 14 14 14 14 13 13 14 14 14 14 14 14 14 15 16 17 18 19 19 20 20 19 19 19 18 19 20 21 22 25 26 28 28 27 25 25 26 26 24 21 19 20 22 22 21 19 17 19 20 21 21 20 20 20
10 10 11 12 13 14 16 18 20 22 23 23 24 27 28 28 27 26 25 25 27 28 26 23 22 21 19 17 16 16 16 16 16 16 14 14 14 15 15 15 15 15 15 16 17 18 19 20 21 21 22 22 20 20 21 20 20 22 23 24 26 27 28 29 28 25 24 25 26 26 24 23 25 27 27 24 21 19 19 20 20 21 21 20 20
6 7 8 9 10 11 13 15 16 18 18 18 19 21 24 26 28 29 28 27 27 29 28 26 25 23 20 18 17 16 17 17 17 16 16 15 16 16 16 16 15 15 16 17 18 19 21 22 22 22 23 24 22 21 21 21 21 22 23 24 27 29 29 31 31 29 26 26 28 31 31 29 30 32 31 27 24 22 23 23 24 25 25 24 24
6 8 9 9 10 11 12 13 14 14 15 15 16 18 20 23 26 29 30 29 28 30 30 28 27 24 21 19 17 17 18 18 18 17 17 17 18 18 18 17 17 18 19 20 21 21 22 23 23 23 23 24 24 22 21 22 22 23 24 24 26 28 30 31 34 33 30 29 32 37 38 35 33 35 35 33 30 27 26 27 28 29 29 30 30
8 10 10 10 11 13 14 13 13 13 14 14 15 16 18 20 22 25 29 30 29 31 31 29 28 24 20 19 18 17 18 18 18 18 19 20 20 19 19 19 20 21 22 22 23 23 23 24 24 24 23 23 24 24 23 23 24 25 25 26 26 27 29 30 32 34 32 31 33 38 40 38 35 37 38 36 34 32 29 28 27 27 28 30 31
9 10 11 12 12 14 16 16 15 14 14 14 15 16 17 19 21 24 27 28 28 29 30 28 26 23 20 18 18 18 18 18 18 19 20 21 20 19 19 19 21 22 23 23 23 23 24 25 26 26 24 23 24 25 24 23 24 25 26 28 28 29 31 31 32 33 33 31 32 36 41 39 34 36 39 36 34 33 29 27 24 22 22 24 26
11 11 11 12 13 14 16 17 16 15 14 15 16 17 18 19 19 20 23 25 27 28 27 24 22 20 18 18 17 17 17 18 19 20 20 20 20 20 20 21 22 23 24 24 24 25 25 26 27 27 26 25 25 26 26 25 26 26 27 28 29 31 33 34 35 35 33 32 31 34 39 38 32 33 36 33 32 32 27 23 21 19 19 19 20
10 11 11 12 13 14 15 15 15 15 15 16 17 17 18 18 17 17 20 25 28 28 24 21 21 20 18 18 17 17 18 18 19 19 18 18 18 20 21 22 24 25 26 27 26 26 27 27 28 28 28 27 27 27 27 27 28 28 29 31 31 32 34 36 37 36 34 31 29 30 36 37 32 32 34 31 29 30 27 23 22 20 18 16 16
9 10 11 12 14 15 16 16 16 16 16 16 16 16 16 16 16 17 20 24 25 24 21 20 21 19 18 17 17 18 19 19 19 18 18 18 19 21 23 24 26 27 28 28 28 28 29 29 29 30 30 30 30 30 30 30 30 30 32 34 34 33 35 37 38 38 36 34 31 30 34 35 30 28 30 28 26 27 27 26 25 20 16 14 14
8 10 11 13 14 15 16 18 18 18 17 17 16 15 15 15 16 18 21 22 22 20 18 18 18 16 16 17 19 20 20 19 18 18 18 20 21 23 25 26 28 28 29 30 31 31 32 32 33 33 34 33 33 33 32 32 31 30 32 35 35 33 35 36 37 38 38 36 33 29 29 29 24 22 25 27 26 25 24 22 21 18 16 15 14
9 10 12 14 16 17 18 18 19 18 18 17 17 16 15 15 16 18 20 21 20 18 18 17 15 15 17 19 19 19 17 16 17 18 20 22 24 25 26 28 29 30 30 32 33 35 36 37 36 36 35 33 32 31 30 29 29 28 30 33 34 35 36 36 35 36 36 36 32 27 26 26 23 21 24 27 29 28 24 18 15 14 15 14 13
Wind_Direction
222 223 214 215 214 218 220 216 213 213 219 210 200 217 220 205 207 198 169 149 131 124 100 247 219 210 185 173 189 176 226 246 241 240 240 252 269 279 279 276 281 288 281 284 285 228 238 224 223 220 214 213 211 207 210 212 206 212 213 196 192 189 183 181 187 191 184 161 106 72 58 59 62 62 64 60 56 53 52 51 50 50 49 48 46
212 220 214 208 208 218 220 216 219 220 224 217 203 210 207 195 193 179 152 143 137 164 227 246 237 222 195 185 187 179 217 259 261 246 233 247 263 272 271 269 277 285 285 282 275 240 258 225 226 228 221 219 216 211 213 218 219 223 226 216 205 202 195 192 198 207 212 209 199 153 61 51 57 60 62 63 60 55 53 52 50 49 49 50 47
211 217 214 203 207 224 227 219 220 221 226 230 215 206 204 204 195 182 171 158 158 192 226 230 229 232 228 217 207 199 212 246 264 263 255 250 255 268 268 268 273 279 289 295 294 266 245 215 217 232 229 223 219 213 213 218 223 227 232 233 228 222 212 209 213 217 229 237 241 249 282 8 27 40 52 59 62 59 56 54 52 50 48 47 47
218 218 213 208 217 232 233 226 230 226 224 227 219 208 205 211 202 193 193 182 182 204 219 218 214 221 229 225 228 229 217 232 260 272 275 260 252 265 275 278 274 273 282 294 307 297 269 238 212 227 233 229 223 217 219 221 226 230 232 238 241 240 230 222 227 233 246 258 262 264 264 271 314 354 25 43 54 59 59 57 55 53 50 48 45
221 220 211 213 223 232 235 233 238 233 224 220 210 199 199 208 211 207 203 199 200 207 213 212 209 210 216 215 224 237 227 230 251 265 276 270 258 267 282 293 290 280 284 292 299 300 287 268 238 232 231 234 234 230 235 234 236 240 241 244 247 251 248 238 236 242 254 264 270 272 270 266 268 284 314 357 34 51 57 58 58 57 55 52 48
222 222 215 221 227 233 240 237 232 228 228 225 210 199 202 212 222 224 220 215 223 228 224 220 214 207 213 218 217 228 227 218 225 245 263 267 264 266 269 284 304 300 297 303 302 300 291 279 262 245 235 237 244 248 251 251 251 255 260 261 262 263 263 256 243 240 250 261 267 270 273 271 268 267 272 285 321 28 54 57 58 60 59 58 54
222 221 221 230 234 232 235 234 228 223 226 228 216 212 214 220 231 240 245 239 241 242 228 219 211 202 210 226 218 208 209 200 199 216 237 254 260 260 261 272 290 298 300 304 305 305 299 286 275 259 244 238 239 248 253 261 264 266 272 276 278 276 273 272 262 246 246 254 261 265 270 273 273 271 268 268 269 275 304 55 55 60 64 64 61
222 224 226 232 233 230 228 231 231 224 223 223 218 221 222 222 230 239 242 240 238 234 212 197 197 199 206 224 222 209 205 201 190 195 210 233 252 254 257 265 271 280 290 296 299 302 301 292 284 276 267 256 245 251 253 260 268 266 272 275 278 281 279 279 276 268 254 252 257 260 265 270 273 273 270 266 260 253 250 239 229 72 72 72 68
219 228 230 225 225 228 227 225 229 230 231 229 221 226 229 227 229 230 227 222 228 227 193 188 195 200 204 218 227 221 212 210 201 195 198 201 227 246 251 257 268 273 277 287 293 293 293 292 292 286 277 274 269 265 259 259 265 264 266 268 272 277 280 280 279 279 270 259 259 261 265 268 269 270 267 263 257 249 240 233 228 222 161 82 76
203 214 222 220 222 228 224 217 222 231 233 231 224 226 230 229 230 230 222 207 213 213 182 187 199 206 212 223 233 229 220 218 218 212 203 195 192 213 244 252 258 266 271 282 290 287 284 289 293 288 281 285 290 285 276 268 267 265 260 259 263 265 270 276 275 277 273 263 257 259 262 262 262 261 261 260 255 250 241 231 226 221 226 221 82
163 183 200 211 218 224 222 220 226 229 230 232 228 227 227 226 229 232 228 215 211 207 185 191 205 214 220 226 230 229 225 226 228 225 218 210 203 188 194 242 243 251 263 273 282 283 285 291 290 288 287 292 297 290 280 277 270 265 263 257 255 255 258 264 264 262 262 258 250 246 248 252 254 252 252 255 253 251 245 235 227 219 215 217 201
161 159 162 179 193 208 219 231 239 237 235 235 233 233 230 226 227 230 233 233 225 217 203 202 214 219 220 225 226 223 222 222 225 226 224 224 220 204 194 193 208 234 254 260 263 266 279 292 289 286 290 295 299 291 276 270 257 246 262 264 258 255 252 253 253 251 252 254 255 250 240 241 245 245 246 249 251 249 246 241 230 221 216 211 216
175 163 158 148 148 180 213 235 242 241 239 234 232 234 234 228 226 228 230 234 233 229 221 218 223 221 221 231 231 224 220 216 213 216 221 224 225 218 211 211 202 204 238 248 248 251 259 271 272 268 272 283 293 292 277 260 248 249 272 276 267 259 253 250 248 252 255 256 262 262 247 240 245 248 249 249 251 251 249 245 237 227 220 214 215
161 149 151 146 146 165 189 218 220 225 228 229 232 234 234 228 225 230 230 229 233 235 233 228 226 225 228 236 236 229 227 228 223 219 219 218 220 225 225 226 223 213 216 223 231 243 250 259 261 252 251 261 271 280 273 260 263 284 293 287 273 261 256 254 248 247 252 253 258 261 250 248 261 267 267 264 259 256 254 249 244 237 226 217 212
151 154 149 140 154 180 194 201 199 208 213 217 230 235 236 227 222 229 230 229 233 234 235 231 229 229 229 231 232 231 236 244 242 235 231 223 218 227 233 231 232 230 227 226 232 242 249 257 264 259 251 252 253 255 251 252 274 295 298 292 275 258 253 252 247 241 240 243 251 258 260 268 288 295 288 281 270 260 257 251 244 240 234 226 214
141 157 155 147 154 175 198 205 184 168 163 160 175 198 217 216 220 228 228 226 228 230 230 230 230 227 222 223 225 227 235 239 237 237 239 234 229 233 235 232 234 236 237 239 240 243 250 257 265 270 268 264 260 256 247 244 254 267 281 289 277 259 251 250 249 244 239 240 247 256 265 278 289 297 301 298 285 268 257 252 244 239 237 234 226
143 146 147 149 145 130 129 144 148 137 125 123 123 114 118 152 197 223 228 226 223 221 221 223 228 224 211 203 204 210 218 218 222 229 232 232 231 234 235 236 237 236 239 245 246 246 251 255 259 264 268 271 272 269 262 253 247 244 249 263 269 261 254 251 251 250 244 243 251 257 263 272 277 285 297 303 300 282 261 250 243 242 243 243 238
154 148 144 147 143 127 114 110 134 148 135 131 125 114 114 114 117 143 191 208 210 211 209 209 217 218 210 202 192 182 188 196 207 220 224 220 215 221 234 241 244 240 235 238 245 247 250 254 256 258 259 262 270 272 267 263 257 246 239 240 246 253 257 259 255 249 243 244 252 256 257 265 269 271 280 288 294 294 276 255 243 243 248 251 248
137 147 147 144 142 134 120 115 136 154 145 144 138 123 123 118 108 98 94 139 171 187 196 196 199 202 204 205 200 173 159 181 203 210 220 215 210 221 236 243 259 263 249 243 246 241 246 260 264 260 255 255 265 270 264 264 265 260 254 244 238 240 245 255 259 252 243 241 247 251 252 259 264 265 268 274 280 286 287 271 252 245 245 247 248
111 136 150 152 146 135 131 134 141 147 150 155 154 141 143 142 121 81 68 107 137 146 151 155 162 170 179 193 197 180 166 187 207 224 238 236 230 233 257 272 276 280 274 270 266 253 254 268 272 271 263 256 259 260 257 261 265 265 264 258 255 249 238 239 248 252 251 248 246 248 250 255 260 264 267 267 270 276 281 279 267 255 248 246 246
93 104 131 152 154 143 139 145 145 151 173 185 184 180 190 215 242 274 47 121 130 133 131 126 132 140 141 151 160 155 150 148 153 192 217 220 184 139 67 346 317 315 300 296 297 279 270 267 263 266 271 259 249 246 247 253 260 262 260 258 260 261 254 245 241 241 249 255 257 256 255 256 258 262 266 265 264 266 269 272 273 268 260 253 248
89 86 94 122 147 154 157 161 155 141 143 156 161 160 168 188 217 227 203 165 143 136 130 125 131 141 145 150 154 156 154 147 149 167 179 174 163 143 94 358 18 28 12 344 1 347 307 281 265 259 265 267 254 247 251 255 259 258 257 259 262 264 264 260 252 245 243 247 252 254 256 259 261 261 263 265 265 265 264 264 269 271 270 266 257
95 95 91 96 115 135 148 145 123 113 111 112 113 112 115 119 112 114 141 157 155 155 151 146 151 156 159 160 159 160 161 161 166 174 184 191 185 185 208 228 39 62 91 80 28 6 340 317 283 261 260 262 255 254 263 271 276 270 263 265 268 268 265 259 256 255 251 248 245 244 248 256 260 261 262 264 265 265 265 264 265 268 271 272 267
103 102 101 101 104 112 117 111 104 102 98 97 98 95 93 92 90 92 103 120 133 141 151 163 173 176 176 178 177 174 177 189 201 210 219 226 227 227 236 246 245 210 111 85 35 353 336 330 307 277 263 256 251 256 265 274 286 282 270 265 265 266 264 261 261 261 260 258 254 252 255 260 261 260 262 263 264 265 266 265 265 266 269 271 270
103 104 105 105 107 109 108 106 103 98 92 91 94 92 86 81 80 80 85 93 98 101 98 101 135 169 178 181 180 176 186 203 215 225 229 233 240 244 253 262 258 251 228 150 47 32 33 19 333 282 265 256 244 256 268 276 286 282 271 266 267 267 266 264 265 265 265 264 265 268 270 267 262 260 260 262 264 265 265 264 263 262 264 270 273
98 100 102 104 107 109 109 108 105 100 94 90 92 91 85 79 79 78 80 85 87 90 92 90 98 121 142 146 138 137 149 179 204 220 225 234 247 252 248 248 252 252 219 171 146 86 69 59 54 67 256 260 262 267 264 272 291 292 283 280 286 289 283 271 267 269 270 269 271 274 272 267 262 260 259 260 261 263 263 264 264 262 264 269 272
100 96 96 98 101 103 107 109 107 105 100 91 86 83 79 76 79 81 82 85 90 94 99 104 109 113 101 86 93 104 92 74 68 66 64 46 325 322 297 255 232 225 189 167 160 117 79 72 82 88 85 81 71 7 225 223 319 313 310 303 301 298 291 278 269 269 269 268 269 271 271 270 267 264 262 260 260 261 262 265 266 266 268 270 271
107 99 96 94 92 93 96 101 105 109 105 99 88 74 75 75 71 75 81 85 90 90 93 103 111 112 104 102 105 102 91 83 77 68 62 57 50 30 2 353 344 310 189 183 181 152 83 73 93 99 95 94 99 113 130 132 169 208 261 283 285 284 283 278 271 268 267 268 269 270 269 270 270 268 265 263 262 262 263 265 266 267 269 270 271
114 104 97 94 89 85 85 85 90 94 97 100 100 81 80 77 64 68 73 79 84 83 83 92 96 92 91 98 103 97 91 96 97 85 76 76 74 67 41 23 7 359 358 326 227 236 324 31 65 107 109 109 115 124 136 162 212 242 261 266 269 272 274 275 276 277 276 276 276 275 272 270 268 267 265 264 263 263 264 265 266 266 266 267 268
135 120 99 84 75 76 77 71 69 67 64 70 72 61 66 68 63 62 59 60 68 74 79 84 83 80 81 83 84 80 74 77 96 95 89 84 71 60 52 40 27 8 354 348 336 305 290 307 315 298 280 246 208 211 225 239 256 265 269 267 267 269 272 274 275 277 277 276 275 275 273 270 267 265 264 263 263 262 263 263 264 265 266 266 266
224 231 265 337 360 9 16 17 24 20 7 20 20 8 22 40 51 58 59 67 73 77 81 83 81 70 73 81 73 66 58 47 51 64 76 90 80 62 52 41 35 26 360 342 337 322 299 288 289 290 284 278 275 267 260 261 263 263 264 265 268 270 273 275 275 276 276 275 275 274 272 270 267 263 261 259 259 260 260 261 262 263 265 266 267
247 264 281 293 299 308 318 322 324 327 325 325 323 319 321 324 332 338 316 24 57 82 97 96 99 89 82 93 69 48 41 34 32 32 32 60 87 72 55 45 32 15 356 340 329 327 326 308 297 293 283 276 275 270 264 264 265 266 267 268 270 271 273 274 275 276 275 276 279 282 281 279 274 270 266 264 262 261 261 261 262 264 265 266 268
248 264 283 295 297 296 296 300 303 304 307 310 309 307 305 303 301 294 277 272 299 306 232 206 358 317 290 310 83 53 15 8 16 19 18 24 37 29 18 25 14 346 334 327 318 318 329 326 315 315 309 296 290 282 275 273 275 278 278 275 276 277 281 285 284 281 280 281 286 290 289 285 279 274 270 269 268 267 266 266 265 265 266 267 267
234 251 273 289 295 296 295 296 296 295 297 299 300 302 302 299 296 293 284 271 280 290 279 275 297 294 287 304 319 322 331 339 344 349 1 18 5 342 339 328 300 291 292 298 305 312 325 332 329 328 328 323 319 316 308 300 297 296 293 290 289 292 301 306 305 302 298 289 285 285 284 281 277 275 273 271 269 267 269 272 272 271 270 268 268
217 232 253 275 289 294 296 296 296 297 297 296 297 299 299 296 292 291 289 282 276 279 281 281 286 284 272 282 304 314 319 320 319 322 326 336 336 314 310 300 287 284 288 297 307 315 322 329 331 329 328 326 324 323 319 314 313 314 311 306 302 298 298 299 298 297 294 285 277 276 276 275 273 272 271 270 269 267 268 271 275 277 276 274 273
223 226 231 244 261 274 283 286 285 287 287 289 293 295 295 294 289 285 286 284 277 275 278 279 280 284 277 273 291 305 313 319 320 324 324 323 328 326 321 318 311 310 311 310 310 311 314 321 325 324 322 321 322 323 321 319 320 319 315 311 307 303 296 289 286 283 279 273 268 266 266 267 268 269 268 267 267 266 266 269 272 274 277 279 279
236 235 235 238 247 257 265 268 268 271 275 276 277 280 283 285 285 283 281 280 276 274 277 277 275 277 279 280 291 302 311 317 318 320 321 321 321 319 315 314 311 312 314 310 305 304 306 313 320 322 320 319 320 322 321 319 318 315 312 306 301 298 295 289 285 279 272 265 262 262 263 263 265 267 268 267 266 263 263 265 268 272 277 281 282
251 254 255 251 254 261 263 260 255 255 256 258 261 262 263 268 273 275 274 273 273 272 273 273 269 271 276 280 287 296 303 310 314 316 318 316 312 307 307 310 313 315 317 315 313 309 307 309 315 318 320 320 318 318 318 314 311 312 312 304 294 287 286 285 282 280 274 269 268 270 270 267 267 267 267 268 268 267 265 266 270 275 280 284 284
256 258 258 254 257 261 260 256 252 249 246 250 256 260 259 258 258 263 268 266 264 266 267 266 265 266 269 273 281 288 293 302 310 312 311 309 306 305 307 310 314 316 317 316 316 314 313 313 314 315 317 317 315 312 310 303 297 296 293 290 289 286 282 279 277 275 273 271 272 273 272 269 266 265 265 266 267 267 266 267 271 276 280 282 283
258 258 258 257 252 248 247 249 250 249 247 247 251 256 260 259 253 254 261 262 261 262 260 257 260 263 265 270 278 283 289 296 301 301 302 302 301 303 305 307 309 312 313 314 315 314 313 314 314 313 311 311 310 305 302 298 292 285 278 278 282 285 283 279 278 278 277 276 276 276 275 272 267 263 263 265 263 260 261 261 264 269 273 276 279
258 258 259 258 250 243 244 247 249 249 250 251 252 251 254 259 257 251 252 255 258 258 254 251 254 259 264 271 278 283 287 290 293 295 296 296 298 299 300 302 305 308 310 312 313 314 313 313 313 310 306 306 306 303 301 299 294 287 282 279 279 281 281 281 281 283 284 284 283 281 280 277 274 274 275 276 269 259 257 258 259 261 262 264 268
252 253 255 257 256 255 255 254 255 257 258 260 257 252 251 256 257 251 248 252 253 251 248 248 250 255 261 268 274 278 282 286 290 291 292 294 298 299 299 300 302 306 308 310 311 311 311 310 309 308 306 306 306 304 302 301 295 289 287 285 282 282 283 283 283 284 283 284 285 284 281 278 280 284 284 282 274 263 258 257 257 258 258 257 258
253 259 266 271 273 273 268 263 261 262 262 262 261 260 258 258 256 251 248 250 250 246 245 247 251 255 259 263 266 271 278 284 285 286 291 297 300 300 299 299 300 302 303 305 309 310 309 307 306 306 306 307 307 306 303 301 296 291 289 286 283 282 282 282 283 283 283 283 284 283 282 282 284 286 286 284 279 270 263 260 258 258 259 260 259
274 273 274 279 283 283 278 272 266 263 263 265 268 270 267 262 258 252 246 246 247 246 245 247 251 253 255 257 261 268 279 284 284 287 295 300 300 298 297 300 302 303 305 309 313 313 310 308 306 306 306 307 306 306 305 303 299 295 292 288 285 284 283 282 282 282 283 283 282 282 283 284 284 284 284 285 284 279 274 270 265 261 260 261 262
273 273 273 274 280 284 282 278 274 269 267 267 267 269 268 262 255 248 245 247 250 249 246 245 247 249 252 254 259 271 279 281 281 287 295 298 296 294 297 301 303 305 308 312 314 314 312 311 309 308 309 308 306 306 307 305 302 299 296 293 292 290 288 286 284 284 285 285 284 284 283 283 285 285 285 286 287 287 286 283 280 275 268 264 262
251 261 267 270 274 278 279 281 281 277 271 268 267 267 265 261 254 250 249 249 248 245 241 240 242 245 250 256 264 272 276 277 281 288 293 295 293 292 294 297 300 303 305 307 309 308 309 309 309 308 308 307 304 304 304 302 300 299 298 297 296 293 290 289 288 288 290 291 293 293 289 287 288 287 286 287 289 290 292 293 290 285 277 271 265
245 251 258 263 266 270 274 277 278 277 272 269 269 267 265 265 263 257 251 246 238 231 228 231 239 245 249 255 260 263 267 275 284 288 291 292 291 291 293 295 299 301 301 302 303 304 305 306 306 307 307 306 304 303 302 301 298 297 296 294 293 292 292 292 291 292 294 295 298 299 296 296 297 292 288 288 289 289 292 293 290 288 288 286 278
249 251 256 260 261 263 270 273 273 275 274 270 271 272 271 273 273 264 254 244 233 224 221 230 242 246 248 251 254 257 266 275 280 282 284 286 286 286 287 290 294 297 298 300 301 301 301 302 302 303 303 303 301 300 299 298 296 294 292 288 287 288 289 290 290 292 295 296 297 299 298 299 300 296 292 292 292 290 288 285 286 293 298 293 286
255 251 255 262 263 262 266 269 271 274 276 275 276 277 276 276 273 262 251 241 233 229 233 238 241 242 247 253 259 266 271 275 277 280 282 282 279 279 281 285 289 292 295 297 297 297 298 298 298 298 297 297 296 294 293 291 289 287 285 283 284 285 285 285 288 291 294 294 295 297 298 299 300 299 297 296 294 290 288 286 285 286 285 281 283
273 258 255 261 265 262 260 263 265 268 272 274 275 275 272 268 263 255 247 242 240 240 240 237 238 244 253 260 267 271 274 276 279 282 281 279 278 280 283 287 289 290 293 294 294 294 295 295 295 295 293 293 292 291 290 287 284 280 277 277 279 280 280 281 284 288 291 292 294 296 297 298 301 302 297 294 289 282 283 285 281 276 274 276 282
284 263 253 256 261 261 260 261 263 264 265 267 270 271 267 263 258 253 249 245 240 235 233 235 240 247 256 261 263 264 266 271 274 275 275 277 279 282 284 286 287 289 292 293 293 294 295 295 296 296 295 295 294 293 292 289 285 281 275 273 272 272 274 276 280 284 287 288 291 296 296 295 295 291 290 294 294 288 283 276 267 273 284 284 286
Height
1541 1542 1543 1543 1544 1545 1545 1546 1546 1545 1545 1546 1547 1548 1549 1549 1550 1551 1551 1552 1553 1554 1555 1556 1557 1557 1558 1559 1560 1561 1562 1562 1563 1563 1563 1564 1564 1564 1564 1564 1563 1563 1563 1563 1563 1563 1564 1565 1565 1566 1566 1567 1567 1568 1568 1568 1568 1568 1568 1568 1568 1568 1568 1569 1569 1569 1570 1570 1570 1570 1570 1570 1570 1570 1570 1570 1569 1568 1568 1567 1567 1566 1566 1565 1564
1541 1542 1542 1543 1544 1545 1545 1545 1545 1545 1545 1546 1547 1548 1548 1549 1550 1551 1551 1552 1553 1554 1555 1556 1557 1558 1559 1559 1560 1561 1562 1562 1562 1563 1563 1563 1564 1564 1564 1564 1563 1563 1563 1563 1563 1563 1564 1564 1565 1566 1566 1566 1567 1567 1567 1567 1568 1568 1568 1568 1568 1568 1568 1568 1569 1569 1570 1570 1570 1570 1570 1570 1570 1570 1570 1570 1570 1569 1569 1568 1568 1567 1567 1566 1565
1540 1541 1542 1543 1544 1544 1544 1545 1545 1545 1545 1546 1547 1547 1548 1549 1550 1550 1550 1551 1552 1553 1554 1555 1556 1557 1558 1559 1560 1561 1562 1562 1562 1562 1563 1563 1563 1564 1564 1564 1563 1563 1563 1563 1563 1563 1564 1564 1565 1565 1566 1566 1566 1566 1567 1567 1567 1567 1567 1568 1568 1568 1568 1568 1568 1569 1569 1570 1570 1570 1570 1571 1571 1571 1571 1571 1571 1570 1570 1569 1569 1568 1568 1567 1566
1539 1540 1541 1542 1543 1543 1543 1544 1545 1545 1545 1545 1546 1547 1547 1548 1549 1549 1550 1550 1551 1552 1554 1554 1555 1556 1557 1558 1560 1561 1562 1562 1561 1562 1562 1563 1563 1564 1564 1564 1563 1563 1563 1563 1563 1563 1564 1564 1564 1565 1565 1566 1566 1566 1566 1566 1567 1567 1567 1567 1567 1568 1568 1568 1568 1569 1569 1569 1570 1570 1570 1570 1571 1571 1571 1571 1571 1571 1571 1570 1570 1569 1569 1568 1567
1539 1540 1541 1542 1542 1542 1543 1544 1544 1544 1545 1545 1545 1546 1547 1547 1547 1548 1548 1549 1550 1551 1552 1553 1554 1555 1556 1557 1558 1559 1559 1561 1561 1561 1561 1562 1562 1563 1563 1563 1563 1563 1563 1563 1563 1563 1564 1564 1564 1565 1565 1565 1566 1566 1566 1566 1566 1566 1567 1567 1567 1567 1568 1568 1569 1569 1569 1569 1569 1570 1570 1570 1570 1570 1570 1571 1571 1571 1571 1571 1570 1570 1569 1569 1568
1538 1539 1540 1541 1541 1541 1542 1543 1543 1543 1543 1543 1544 1545 1546 1546 1546 1547 1548 1549 1550 1550 1551 1552 1553 1554 1554 1554 1556 1556 1557 1558 1560 1560 1560 1561 1561 1562 1562 1563 1563 1563 1563 1563 1563 1563 1563 1564 1564 1564 1564 1565 1566 1566 1566 1566 1566 1566 1566 1567 1567 1567 1567 1568 1568 1568 1569 1569 1569 1569 1569 1570 1570 1570 1570 1570 1571 1571 1571 1571 1570 1570 1570 1569 1569
1537 1538 1538 1539 1539 1540 1541 1541 1542 1542 1542 1542 1543 1543 1544 1545 1546 1547 1547 1548 1548 1548 1549 1550 1551 1551 1552 1553 1554 1555 1555 1556 1558 1558 1559 1560 1560 1561 1561 1562 1562 1563 1563 1563 1563 1563 1563 1563 1564 1564 1564 1564 1565 1565 1566 1566 1566 1566 1566 1566 1567 1567 1567 1567 1567 1568 1568 1568 1569 1569 1569 1569 1569 1570 1570 1570 1570 1570 1571 1571 1571 1570 1570 1570 1569
1535 1536 1536 1537 1537 1539 1540 1540 1540 1540 1541 1541 1541 1542 1543 1544 1545 1546 1546 1546 1546 1546 1546 1547 1548 1548 1550 1551 1552 1553 1554 1555 1556 1556 1558 1559 1559 1560 1561 1561 1562 1562 1562 1562 1563 1563 1563 1563 1563 1564 1564 1564 1564 1565 1565 1565 1566 1566 1566 1566 1566 1566 1566 1566 1567 1567 1568 1568 1568 1569 1569 1569 1569 1569 1569 1569 1570 1570 1570 1570 1570 1570 1570 1570 1569
1534 1535 1535 1536 1537 1538 1539 1539 1539 1539 1539 1540 1540 1541 1542 1543 1544 1545 1545 1545 1545 1545 1545 1545 1546 1547 1549 1550 1551 1552 1553 1554 1555 1555 1557 1558 1558 1558 1559 1560 1561 1561 1561 1562 1562 1563 1563 1563 1563 1563 1563 1564 1564 1564 1565 1565 1565 1565 1565 1566 1566 1566 1566 1566 1566 1566 1567 1567 1568 1568 1568 1568 1569 1569 1569 1569 1569 1569 1569 1570 1570 1570 1570 1570 1570
1535 1536 1536 1537 1537 1538 1539 1538 1538 1538 1538 1539 1540 1541 1541 1542 1543 1543 1544 1545 1545 1545 1545 1545 1546 1547 1548 1549 1550 1552 1552 1553 1554 1555 1556 1557 1557 1557 1557 1558 1559 1560 1560 1561 1561 1562 1562 1562 1563 1563 1563 1563 1564 1564 1564 1564 1564 1564 1565 1565 1565 1565 1565 1566 1566 1566 1566 1567 1567 1567 1567 1568 1568 1568 1568 1568 1568 1568 1569 1569 1570 1570 1570 1570 1570
1535 1536 1536 1537 1537 1537 1537 1536 1536 1537 1538 1538 1539 1540 1541 1542 1542 1543 1544 1545 1545 1545 1545 1545 1546 1547 1547 1548 1549 1550 1551 1551 1552 1554 1555 1556 1556 1557 1557 1557 1557 1558 1559 1560 1560 1561 1561 1562 1562 1562 1562 1562 1563 1563 1563 1563 1563 1564 1564 1564 1565 1565 1565 1565 1565 1566 1566 1566 1566 1566 1567 1566 1567 1567 1567 1567 1567 1568 1568 1569 1569 1569 1570 1570 1570
1534 1534 1535 1535 1535 1535 1534 1534 1535 1536 1537 1538 1539 1539 1540 1541 1542 1543 1544 1544 1544 1545 1545 1545 1545 1546 1546 1546 1547 1548 1549 1550 1551 1552 1553 1554 1555 1556 1556 1556 1556 1556 1557 1558 1559 1559 1560 1561 1561 1561 1561 1561 1562 1562 1562 1562 1562 1563 1563 1564 1564 1564 1564 1565 1565 1565 1565 1565 1565 1565 1566 1566 1566 1566 1566 1566 1566 1567 1567 1568 1568 1569 1569 1569 1569
1532 1533 1533 1534 1534 1534 1534 1534 1534 1535 1536 1537 1538 1539 1539 1540 1541 1542 1543 1543 1543 1543 1544 1544 1544 1545 1545 1545 1545 1546 1548 1549 1549 1550 1551 1552 1553 1555 1555 1555 1556 1556 1556 1556 1556 1557 1558 1559 1559 1559 1560 1560 1561 1561 1561 1562 1562 1562 1562 1562 1563 1563 1563 1564 1564 1564 1564 1565 1564 1565 1565 1565 1565 1565 1565 1566 1566 1566 1566 1567 1568 1568 1569 1569 1569
1533 1533 1534 1534 1534 1535 1535 1535 1535 1535 1536 1537 1538 1538 1538 1539 1539 1540 1541 1542 1542 1542 1543 1543 1544 1544 1544 1544 1544 1545 1546 1547 1548 1548 1549 1550 1552 1553 1553 1553 1554 1555 1556 1556 1555 1555 1556 1557 1557 1558 1558 1559 1559 1560 1560 1561 1561 1562 1562 1562 1562 1562 1562 1563 1563 1564 1564 1564 1564 1564 1564 1564 1564 1565 1565 1565 1566 1566 1566 1566 1567 1568 1568 1569 1569
1535 1535 1535 1535 1536 1536 1536 1536 1536 1537 1537 1537 1538 1538 1538 1539 1539 1539 1540 1540 1541 1541 1541 1542 1543 1543 1543 1543 1544 1545 1546 1546 1546 1547 1548 1549 1550 1551 1552 1552 1553 1554 1555 1555 1555 1555 1555 1556 1556 1556 1557 1558 1558 1559 1559 1560 1561 1561 1561 1561 1561 1561 1561 1562 1562 1563 1563 1563 1563 1563 1564 1564 1564 1564 1565 1565 1565 1565 1565 1566 1566 1567 1567 1568 1568
1535 1536 1536 1537 1537 1537 1537 1537 1537 1537 1537 1538 1538 1538 1538 1538 1538 1538 1539 1539 1540 1540 1541 1541 1542 1542 1543 1544 1545 1546 1546 1546 1546 1546 1547 1548 1549 1550 1551 1551 1552 1553 1553 1554 1555 1554 1555 1555 1555 1555 1555 1556 1556 1557 1558 1558 1558 1559 1560 1560 1561 1560 1560 1561 1561 1561 1562 1562 1563 1563 1563 1563 1564 1564 1564 1564 1564 1564 1565 1565 1565 1566 1566 1567 1567
1535 1536 1536 1537 1537 1538 1538 1537 1538 1537 1537 1537 1537 1537 1537 1537 1537 1537 1538 1538 1539 1539 1540 1540 1541 1542 1543 1544 1545 1546 1546 1546 1546 1546 1547 1547 1548 1549 1550 1550 1551 1551 1552 1552 1553 1554 1554 1554 1554 1554 1554 1554 1555 1555 1556 1556 1556 1557 1558 1559 1559 1560 1560 1560 1560 1561 1561 1562 1562 1562 1563 1563 1563 1563 1563 1563 1564 1564 1564 1565 1565 1565 1566 1566 1567
1535 1536 1536 1537 1537 1537 1537 1537 1537 1537 1537 1537 1537 1537 1537 1537 1537 1537 1537 1537 1538 1539 1539 1540 1540 1541 1542 1543 1543 1545 1545 1546 1546 1546 1546 1547 1547 1548 1549 1549 1550 1550 1550 1551 1551 1552 1552 1553 1553 1553 1553 1553 1553 1553 1554 1555 1555 1555 1556 1556 1557 1558 1559 1560 1560 1560 1561 1561 1562 1562 1562 1562 1562 1562 1562 1562 1563 1563 1564 1564 1564 1565 1565 1565 1566
1534 1535 1536 1536 1537 1537 1537 1537 1537 1536 1536 1536 1536 1536 1537 1537 1537 1537 1537 1537 1537 1538 1538 1539 1539 1540 1541 1542 1542 1544 1545 1546 1546 1546 1547 1547 1547 1548 1548 1549 1549 1549 1549 1549 1550 1550 1551 1551 1551 1552 1552 1552 1552 1552 1552 1553 1553 1554 1555 1555 1556 1556 1557 1558 1559 1559 1560 1560 1561 1561 1561 1561 1561 1561 1562 1562 1562 1562 1563 1563 1564 1564 1564 1565 1565
1533 1534 1535 1535 1536 1536 1537 1537 1537 1537 1537 1537 1536 1536 1537 1537 1537 1537 1537 1537 1537 1537 1538 1538 1539 1540 1541 1541 1542 1543 1545 1545 1545 1546 1546 1546 1547 1547 1548 1548 1548 1548 1548 1548 1548 1549 1549 1549 1550 1550 1550 1550 1550 1550 1550 1551 1552 1552 1553 1554 1555 1555 1555 1556 1557 1558 1559 1560 1560 1560 1560 1560 1560 1560 1560 1560 1561 1561 1562 1562 1563 1563 1563 1564 1564
1533 1534 1534 1535 1536 1536 1536 1536 1537 1537 1537 1537 1537 1537 1537 1537 1537 1537 1537 1537 1537 1537 1537 1538 1539 1539 1540 1541 1542 1543 1544 1544 1544 1545 1545 1545 1546 1546 1547 1547 1547 1547 1547 1547 1547 1547 1547 1547 1548 1548 1548 1549 1549 1549 1549 1550 1550 1550 1551 1553 1554 1554 1554 1554 1555 1557 1558 1559 1559 1560 1560 1559 1559 1559 1559 1559 1559 1560 1560 1561 1561 1562 1562 1563 1563
1534 1534 1534 1535 1536 1536 1536 1536 1537 1537 1537 1537 1537 1537 1537 1537 1537 1537 1537 1537 1537 1537 1538 1538 1539 1539 1540 1541 1542 1543 1543 1543 1543 1544 1544 1544 1545 1545 1545 1545 1545 1545 1545 1546 1546 1546 1545 1545 1545 1546 1546 1547 1548 1548 1548 1549 1549 1549 1550 1551 1552 1552 1553 1554 1554 1555 1556 1557 1558 1559 1559 1559 1558 1558 1558 1558 1558 1558 1558 1559 1559 1560 1560 1561 1561
1534 1534 1535 1535 1536 1536 1537 1537 1537 1537 1537 1537 1538 1538 1538 1538 1537 1537 1538 1538 1538 1538 1539 1539 1539 1540 1540 1541 1541 1542 1542 1543 1543 1543 1544 1544 1544 1544 1544 1544 1544 1544 1544 1545 1546 1545 1545 1544 1544 1544 1545 1545 1546 1547 1547 1548 1547 1548 1548 1549 1550 1550 1550 1551 1553 1554 1554 1555 1556 1557 1557 1557 1557 1557 1556 1556 1556 1556 1557 1557 1557 1558 1558 1559 1559
1534 1535 1535 1536 1536 1537 1537 1538 1538 1538 1538 1538 1539 1539 1539 1539 1539 1539 1539 1539 1539 1539 1540 1540 1540 1540 1540 1541 1541 1542 1542 1543 1543 1543 1543 1543 1543 1543 1543 1543 1544 1544 1544 1545 1545 1545 1544 1544 1543 1544 1544 1544 1544 1545 1546 1546 1546 1547 1547 1548 1548 1548 1549 1549 1551 1552 1553 1554 1555 1555 1554 1554 1555 1555 1555 1554 1554 1555 1555 1555 1555 1556 1556 1557 1557
1534 1535 1536 1536 1537 1537 1538 1538 1539 1539 1539 1539 1539 1540 1540 1540 1540 1540 1540 1540 1541 1541 1541 1541 1541 1541 1541 1541 1542 1542 1542 1542 1543 1543 1543 1543 1542 1542 1542 1542 1542 1543 1544 1544 1545 1544 1543 1542 1542 1542 1543 1543 1544 1545 1545 1545 1545 1545 1546 1546 1546 1546 1547 1548 1549 1550 1551 1552 1553 1553 1553 1552 1553 1553 1553 1553 1553 1553 1553 1553 1554 1555 1555 1555 1555
1535 1536 1536 1537 1538 1538 1539 1539 1539 1540 1540 1540 1540 1541 1541 1541 1541 1541 1541 1541 1541 1541 1542 1542 1542 1542 1542 1542 1542 1543 1543 1543 1543 1543 1543 1542 1542 1542 1541 1541 1541 1542 1543 1543 1544 1544 1543 1542 1540 1540 1541 1543 1543 1544 1545 1545 1545 1544 1544 1545 1545 1545 1545 1546 1547 1549 1549 1550 1551 1551 1551 1551 1551 1551 1551 1551 1551 1551 1551 1551 1552 1553 1553 1553 1554
1535 1536 1537 1538 1538 1539 1539 1540 1540 1541 1541 1541 1541 1541 1542 1542 1542 1542 1542 1542 1542 1542 1542 1542 1542 1542 1542 1543 1543 1543 1543 1543 1543 1543 1543 1543 1542 1542 1542 1541 1541 1541 1542 1542 1543 1543 1543 1542 1541 1540 1540 1542 1542 1543 1543 1544 1544 1543 1543 1543 1544 1544 1544 1545 1546 1547 1548 1548 1549 1549 1549 1549 1549 1549 1549 1549 1549 1549 1549 1549 1549 1550 1550 1551 1551
1535 1536 1537 1538 1539 1540 1540 1541 1541 1542 1542 1542 1542 1542 1543 1543 1543 1543 1543 1543 1543 1543 1543 1543 1543 1543 1543 1543 1543 1543 1543 1543 1543 1543 1543 1542 1542 1542 1542 1542 1542 1542 1542 1542 1542 1542 1542 1542 1542 1541 1541 1541 1542 1542 1542 1543 1542 1542 1542 1542 1543 1543 1543 1544 1545 1546 1546 1546 1547 1547 1546 1546 1546 1546 1546 1546 1546 1546 1547 1547 1547 1547 1548 1548 1549
1535 1536 1537 1538 1539 1540 1541 1542 1542 1542 1543 1543 1543 1543 1543 1543 1543 1544 1544 1544 1544 1544 1544 1544 1544 1543 1543 1543 1543 1543 1543 1543 1543 1543 1542 1542 1542 1542 1542 1542 1542 1542 1542 1541 1541 1541 1541 1542 1542 1542 1542 1541 1541 1541 1541 1541 1541 1540 1541 1541 1541 1542 1542 1543 1543 1544 1544 1544 1544 1544 1544 1544 1544 1544 1543 1543 1543 1543 1544 1544 1544 1545 1545 1546 1546
1534 1535 1537 1538 1539 1540 1541 1542 1543 1543 1543 1544 1544 1544 1544 1544 1544 1544 1544 1544 1544 1544 1545 1544 1544 1544 1544 1544 1543 1543 1543 1543 1543 1543 1542 1542 1542 1542 1542 1542 1542 1542 1541 1541 1541 1540 1540 1540 1540 1540 1541 1541 1541 1541 1541 1540 1540 1539 1539 1540 1540 1540 1540 1541 1541 1541 1541 1541 1541 1541 1540 1541 1541 1540 1540 1540 1540 1540 1541 1541 1541 1542 1542 1543 1544
1533 1535 1536 1538 1539 1540 1541 1542 1543 1544 1544 1544 1545 1545 1545 1545 1545 1545 1545 1545 1545 1545 1545 1545 1545 1545 1545 1544 1544 1544 1543 1543 1543 1543 1542 1542 1542 1542 1542 1542 1542 1542 1541 1541 1541 1540 1539 1539 1539 1539 1539 1539 1539 1539 1539 1539 1538 1538 1538 1538 1538 1538 1538 1538 1538 1538 1538 1538 1537 1537 1537 1537 1537 1537 1537 1537 1537 1538 1538 1538 1539 1539 1539 1540 1540
1533 1534 1536 1538 1539 1540 1541 1541 1542 1543 1544 1544 1545 1545 1545 1545 1545 1545 1545 1545 1545 1545 1545 1545 1545 1545 1545 1545 1544 1544 1544 1543 1543 1543 1542 1542 1542 1542 1542 1542 1541 1541 1541 1540 1540 1540 1539 1539 1538 1538 1537 1537 1537 1536 1536 1536 1535 1535 1535 1535 1535 1535 1535 1535 1535 1534 1534 1534 1534 1534 1534 1534 1534 1534 1534 1534 1534 1535 1535 1535 1536 1536 1537 1537 1537
1532 1533 1535 1537 1538 1539 1540 1541 1541 1542 1543 1544 1544 1545 1545 1545 1546 1546 1546 1545 1545 1545 1545 1545 1545 1545 1545 1545 1545 1545 1544 1544 1543 1543 1542 1542 1542 1541 1541 1541 1541 1541 1540 1540 1539 1539 1539 1538 1538 1537 1537 1536 1535 1535 1534 1534 1533 1533 1533 1533 1532 1532 1532 1532 1532 1532 1531 1531 1532 1532 1531 1531 1531 1531 1531 1531 1532 1532 1532 1533 1533 1534 1534 1534 1534
1530 1531 1533 1534 1536 1538 1539 1540 1540 1541 1542 1542 1543 1544 1544 1545 1545 1545 1546 1546 1545 1545 1545 1545 1545 1545 1545 1544 1544 1544 1544 1544 1543 1543 1542 1542 1541 1541 1541 1540 1540 1540 1540 1539 1539 1538 1537 1537 1537 1536 1535 1535 1534 1534 1533 1532 1532 1531 1531 1530 1530 1530 1530 1530 1529 1529 1529 1529 1529 1529 1529 1528 1528 1528 1529 1529 1529 1529 1530 1530 1530 1531 1531 1531 1531
1530 1530 1530 1531 1533 1536 1537 1538 1539 1540 1540 1541 1542 1542 1543 1544 1544 1544 1545 1545 1545 1544 1544 1544 1544 1544 1544 1544 1544 1544 1544 1543 1543 1543 1542 1541 1541 1541 1541 1540 1540 1540 1539 1539 1538 1537 1536 1536 1535 1535 1534 1533 1533 1532 1532 1531 1530 1530 1529 1528 1528 1528 1528 1528 1528 1528 1528 1528 1527 1527 1526 1526 1526 1526 1526 1526 1526 1526 1527 1527 1527 1527 1527 1527 1527
1530 1529 1528 1528 1530 1533 1535 1536 1537 1538 1539 1539 1540 1540 1541 1541 1542 1543 1543 1544 1544 1544 1544 1544 1543 1543 1544 1544 1543 1543 1543 1543 1542 1542 1541 1541 1541 1540 1540 1539 1539 1539 1538 1538 1537 1536 1535 1535 1534 1534 1533 1532 1531 1531 1530 1529 1529 1528 1528 1527 1527 1527 1526 1526 1526 1526 1525 1525 1524 1524 1523 1523 1523 1523 1523 1523 1523 1524 1524 1524 1524 1524 1524 1524 1524
1530 1530 1528 1527 1528 1530 1531 1533 1534 1536 1537 1537 1537 1537 1537 1538 1539 1540 1541 1542 1542 1542 1543 1543 1543 1542 1542 1543 1543 1542 1542 1542 1541 1541 1541 1540 1539 1539 1538 1538 1538 1537 1537 1537 1536 1535 1535 1534 1533 1533 1532 1531 1530 1530 1529 1528 1527 1527 1526 1526 1525 1525 1524 1524 1524 1523 1522 1522 1522 1521 1521 1521 1521 1521 1521 1521 1520 1521 1521 1521 1521 1521 1521 1521 1520
1529 1529 1528 1526 1527 1528 1529 1531 1533 1534 1534 1534 1534 1533 1533 1534 1535 1536 1537 1539 1540 1541 1541 1542 1542 1541 1541 1541 1542 1541 1541 1541 1541 1540 1540 1539 1539 1538 1537 1537 1536 1536 1535 1535 1534 1534 1533 1533 1532 1531 1531 1530 1529 1528 1528 1527 1526 1525 1524 1523 1523 1523 1522 1521 1521 1521 1520 1520 1520 1520 1519 1519 1519 1518 1518 1518 1518 1518 1518 1518 1517 1517 1517 1517 1517
1525 1526 1525 1524 1525 1526 1527 1529 1531 1531 1532 1532 1532 1531 1531 1531 1531 1533 1534 1535 1537 1538 1538 1539 1539 1539 1540 1540 1540 1540 1541 1540 1540 1540 1539 1539 1538 1537 1536 1535 1534 1534 1533 1533 1532 1532 1531 1531 1530 1529 1529 1528 1527 1526 1526 1525 1524 1523 1522 1520 1519 1519 1519 1519 1518 1518 1518 1518 1517 1517 1517 1517 1516 1515 1515 1515 1514 1514 1514 1514 1514 1514 1514 1514 1514
1522 1522 1522 1522 1523 1523 1524 1526 1527 1528 1529 1529 1530 1530 1530 1529 1529 1530 1531 1532 1533 1534 1535 1535 1536 1537 1537 1538 1538 1539 1539 1539 1539 1539 1538 1538 1537 1536 1535 1534 1533 1532 1532 1531 1530 1530 1529 1529 1528 1527 1526 1526 1525 1524 1524 1523 1522 1521 1520 1519 1517 1516 1516 1516 1516 1515 1515 1515 1514 1514 1513 1513 1512 1511 1511 1511 1511 1510 1510 1510 1510 1510 1510 1510 1510
1519 1520 1520 1520 1520 1521 1521 1522 1523 1524 1525 1527 1527 1528 1528 1528 1528 1528 1529 1529 1530 1530 1531 1532 1533 1534 1535 1536 1536 1537 1537 1537 1537 1537 1536 1536 1535 1535 1534 1533 1532 1531 1530 1530 1529 1528 1527 1526 1526 1525 1524 1523 1523 1522 1521 1520 1519 1518 1517 1517 1515 1514 1513 1512 1512 1513 1512 1510 1509 1509 1509 1508 1507 1507 1507 1507 1508 1507 1507 1507 1507 1506 1506 1506 1506
1518 1518 1518 1518 1518 1518 1519 1519 1520 1521 1522 1524 1525 1525 1526 1526 1526 1527 1527 1527 1527 1528 1528 1529 1530 1531 1532 1533 1533 1534 1535 1535 1535 1534 1534 1534 1533 1533 1532 1531 1530 1529 1528 1528 1527 1526 1525 1524 1523 1522 1520 1520 1520 1519 1518 1517 1517 1515 1514 1513 1512 1510 1509 1508 1508 1510 1509 1507 1505 1504 1505 1505 1504 1503 1503 1503 1504 1504 1504 1503 1503 1503 1502 1502 1501
1516 1516 1516 1516 1516 1516 1517 1517 1518 1518 1519 1520 1521 1522 1523 1523 1524 1524 1524 1525 1525 1525 1526 1526 1526 1527 1529 1530 1530 1531 1532 1532 1532 1532 1532 1532 1531 1531 1530 1529 1528 1527 1526 1526 1525 1524 1522 1521 1520 1519 1517 1516 1516 1516 1515 1514 1513 1512 1511 1510 1508 1507 1506 1504 1503 1505 1506 1505 1502 1499 1499 1501 1501 1499 1498 1499 1500 1500 1500 1500 1499 1499 1498 1498 1498
1515 1515 1515 1515 1514 1514 1515 1515 1515 1516 1516 1517 1517 1518 1519 1519 1520 1521 1521 1522 1522 1523 1523 1523 1524 1525 1526 1527 1527 1527 1529 1529 1529 1529 1529 1530 1529 1528 1527 1526 1526 1525 1524 1523 1522 1521 1519 1518 1516 1516 1515 1513 1513 1512 1512 1511 1509 1508 1507 1507 1505 1504 1503 1501 1500 1499 1501 1502 1499 1495 1493 1495 1496 1494 1493 1494 1494 1495 1495 1495 1494 1494 1494 1493 1493
1513 1513 1513 1513 1513 1513 1512 1513 1513 1513 1513 1514 1515 1516 1516 1517 1517 1518 1518 1519 1519 1519 1520 1521 1522 1522 1524 1524 1524 1525 1526 1526 1527 1527 1527 1527 1527 1526 1525 1524 1523 1522 1521 1520 1519 1518 1517 1515 1513 1513 1513 1511 1509 1509 1509 1508 1506 1505 1503 1502 1502 1501 1499 1498 1496 1495 1496 1497 1496 1491 1487 1489 1492 1490 1487 1488 1489 1489 1489 1489 1489 1489 1489 1488 1488
1511 1511 1511 1511 1511 1511 1510 1510 1511 1511 1511 1512 1513 1513 1514 1514 1514 1515 1516 1516 1517 1517 1518 1518 1519 1520 1521 1522 1522 1522 1523 1524 1524 1524 1524 1525 1525 1524 1523 1521 1520 1520 1519 1518 1518 1516 1515 1513 1512 1510 1510 1509 1507 1506 1506 1505 1503 1502 1500 1499 1498 1497 1495 1494 1493 1492 1493 1493 1493 1488 1482 1483 1487 1485 1482 1483 1484 1484 1484 1484 1484 1484 1483 1483 1483
1509 1509 1509 1509 1509 1509 1508 1508 1508 1509 1510 1510 1510 1511 1511 1511 1511 1512 1513 1514 1514 1515 1516 1517 1517 1518 1519 1520 1520 1521 1521 1521 1522 1521 1521 1521 1521 1520 1520 1519 1518 1517 1516 1516 1515 1514 1513 1511 1509 1508 1507 1506 1505 1503 1503 1502 1501 1499 1498 1496 1495 1493 1491 1490 1489 1489 1489 1490 1490 1486 1479 1478 1482 1481 1477 1479 1480 1479 1480 1480 1479 1480 1480 1479 1479
1507 1507 1507 1507 1507 1507 1507 1506 1507 1507 1508 1508 1508 1508 1508 1509 1509 1510 1511 1511 1512 1512 1514 1516 1516 1517 1517 1518 1519 1519 1520 1520 1520 1520 1519 1519 1518 1518 1517 1516 1515 1514 1513 1513 1512 1511 1509 1508 1506 1505 1504 1503 1502 1501 1500 1499 1497 1496 1495 1493 1492 1491 1489 1486 1485 1485 1486 1486 1487 1485 1478 1475 1478 1477 1474 1475 1476 1474 1475 1476 1476 1477 1476 1476 1475
1506 1505 1506 1505 1505 1505 1505 1505 1505 1506 1506 1506 1506 1506 1507 1507 1508 1509 1509 1510 1510 1511 1513 1514 1515 1515 1516 1516 1517 1517 1518 1517 1517 1517 1517 1516 1516 1515 1514 1513 1512 1511 1510 1509 1508 1507 1506 1504 1503 1502 1501 1500 1499 1498 1497 1496 1495 1494 1492 1489 1489 1489 1486 1483 1481 1481 1482 1482 1483 1482 1477 1473 1475 1474 1471 1471 1471 1470 1470 1471 1473 1473 1472 1471 1471
1504 1504 1504 1503 1503 1503 1503 1503 1503 1504 1505 1505 1505 1505 1506 1506 1507 1508 1508 1509 1509 1510 1511 1512 1513 1514 1514 1514 1514 1514 1515 1514 1514 1514 1514 1513 1513 1512 1511 1510 1509 1508 1507 1506 1504 1503 1502 1501 1499 1498 1497 1496 1495 1493 1493 1492 1491 1490 1488 1485 1485 1485 1483 1480 1479 1477 1477 1477 1478 1479 1475 1471 1472 1472 1468 1466 1466 1466 1467 1468 1469 1470 1469 1468 1467
1502 1502 1501 1501 1501 1501 1501 1501 1501 1502 1503 1503 1503 1504 1504 1505 1506 1507 1507 1508 1508 1509 1509 1510 1511 1511 1510 1510 1511 1512 1512 1512 1512 1512 1511 1511 1510 1509 1508 1507 1505 1504 1503 1502 1500 1498 1497 1495 1494 1493 1491 1490 1489 1488 1487 1486 1485 1485 1484 1482 1481 1481 1479 1477 1477 1475 1473 1472 1474 1476 1473 1470 1470 1469 1467 1464 1461 1461 1463 1465 1466 1466 1466 1465 1465